User: anonymous   Login
Location: Newark
(45.2500°N, 7.5833°E)
Time: 23:57:39
(UTC+00:00)
Language:

Courier 1B Rocket - Orbit

View from above orbital plane
View from above orbital plane
View from above satellite
View from above satellite

Ground track
Ground track

The orbit data is extracted from the following two-line orbital elements,

1    59U 60013B   20027.21426360 +.00000111 +00000-0 +27920-4 0  9996
2    59 028.2469 228.8549 0189217 172.3598 187.9888 13.52973968927323
Epoch (UTC): 27 January 2020 05:08:32
Eccentricity: 0.0189217
inclination: 28.2469°
perigee height: 920 km
apogee height: 1202 km
right ascension of ascending node: 228.8549°
argument of perigee: 172.3598°
revolutions per day: 13.52973968
mean anomaly at epoch: 187.9888°
orbit number at epoch: 92732

The dashed part of the orbit path shows where the satellite is in the earth's shadow,  

DLR